{"data":{"norad_id":59448,"intl_designator":"2024-066G","name":"HAWK-9C","alt_names":[],"object_type":"PAYLOAD","status":"ACTIVE","operator":null,"country":"US","launch_date":"2024-04-07","launch_site_code":"AFETR","launch_vehicle":null,"mission":null,"orbit_class":"UNKNOWN","rcs_meters":null,"size_class":null,"mass_kg":null,"dimensions":null,"purposes":[],"wikipedia_slug":null,"has_3d_model":false,"image_url":null,"decayed_at":null,"tle_current":{"epoch":"2026-05-25T03:26:08.602368Z","epoch_age_seconds":69589,"freshness":"FRESH","line1":"1 59448U 24066G   26145.14315512  .00001294  00000+0  12382-3 0  9992","line2":"2 59448  45.6037  35.4595 0003584 263.8906  96.1567 14.99055161116375","mean_motion":14.99055161,"eccentricity":0.0003584,"inclination_deg":45.6037,"raan_deg":35.4595,"arg_perigee_deg":263.8906,"mean_anomaly_deg":96.1567,"bstar":0.00012382,"rev_number":11637,"period_min":96.060507809425,"perigee_km":567.32414867475,"apogee_km":572.30444016259,"semimajor_km":6947.9512944187,"source":"CELESTRAK","updated_at":"2026-05-25T13:38:01.425761Z"}}}